Hourly Weather Roundup
Issued by NWS Central Illinois

Home | Current Version | Previous Version | Text Only | Print | Product List | Glossary On
Versions: 1 2 3 4 5 6 7 8 9 10 11 12 13 14 15 16 17 18 19 20 21 22 23 24 25 26 27 28 29 30 31 32 33 34 35 36 37 38 39 40 41 42 43 44 45 46 47 48 49 50
000
NZUS43 KILX 311110
HWRILX

AREA WEATHER ROUNDUP
NATIONAL WEATHER SERVICE, LINCOLN IL
500 AM CST SAT JAN 31 2015


CITY           SKY/WX    TMP DP  RH WIND       PRES   REMARKS
BLOOMINGTON    MOCLDY    27  23  84 SW10      30.30S WCI  17
CHAMPAIGN      CLOUDY    26  21  81 SW9       30.31F WCI  17
DECATUR        CLOUDY    28  22  78 SW8       30.32S WCI  20
FLORA          PTCLDY    24  22  91 S3        30.37S
GALESBURG      MOCLDY    25  21  86 S6        30.26F WCI  18
JACKSONVILLE   MOCLDY    30  22  73 S8        30.30F WCI  22
LACON          CLEAR     24  19  82 SW3       30.28S
LAWRENCEVILLE  PTCLDY    22  20  92 S5        30.37F WCI  16
LITCHFIELD     MOCLDY    28  22  81 S7        30.33S WCI  20
$$


CITY           SKY/WX    TMP DP  RH WIND       PRES   REMARKS
LINCOLN        PTCLDY    28  24  82 S3        30.32F
MACOMB         CLOUDY    27  22  79 SW8       30.30F WCI  19
MATTOON        PTCLDY    25  19  78 S8        30.32S WCI  16
MT CARMEL AP   PTCLDY    27  23  86 CALM      30.37S
OLNEY-NOBLE AP MOCLDY    23  21  93 CALM      30.37S
PARIS          CLEAR     23  20  88 CALM      30.34S
PEORIA         PTCLDY    25  19  78 SW6       30.29F WCI  18
PONTIAC        PTCLDY    26  22  87 SW6       30.30S WCI  19
RANTOUL        CLOUDY    27  23  83 S5        30.31S WCI  22
ROBINSON       PTCLDY    23  20  89 CALM      30.37F
SPRINGFIELD    PTCLDY    28  21  75 SW7       30.31F WCI  21
TAYLORVILLE    MOCLDY    28  23  80 S10       30.32F WCI  19
$$

...REGIONAL REPORTS...


CITY           SKY/WX    TMP DP  RH WIND       PRES   REMARKS
CHICAGO O`HARE MOCLDY    25  18  74 SW8       30.24F WCI  16
KANKAKEE       MOCLDY    24  21  90 SW7       30.30F WCI  16
MOLINE         FAIR      26  18  71 SW7       30.23F WCI  18
MOUNT VERNON   MOCLDY    21  18  86 CALM      30.37S
PITTSFIELD     MOCLDY    30  22  72 S7        30.30F WCI  23
QUINCY         MOCLDY    28  21  75 SW10      30.27F WCI  19
ROCKFORD       PTCLDY    21  15  78 S7        30.23F WCI  12
$$


CITY           SKY/WX    TMP DP  RH WIND       PRES   REMARKS
BURLINGTON     CLOUDY    28  22  78 S9        30.25F WCI  19
CEDAR RAPIDS   PTCLDY    25  20  81 S12       30.18F WCI  14
DES MOINES     CLOUDY    32  24  72 SW9       30.20S WCI  24
KIRKSVILLE     MOCLDY    28  21  75 S5        30.27S WCI  23
OTTUMWA        PTCLDY    26  20  77 S7        30.22F WCI  18
ST LOUIS       MOCLDY    32  19  58 CALM      30.33F
$$


CITY           SKY/WX    TMP DP  RH WIND       PRES   REMARKS
TERRE HAUTE    CLEAR     21  16  81 CALM      30.35S
EVANSVILLE     MOCLDY    25  20  81 CALM      30.39F
INDIANAPOLIS   CLEAR     16  13  88 SW5       30.32F WCI   9
LAFAYETTE      MOCLDY    20  16  84 CALM      30.33R
MADISON        CLOUDY    24  17  74 S5        30.17F WCI  18
MILWAUKEE      PTCLDY    21  14  74 SW8       30.20F WCI  11
$$




USA.gov is the U.S. government's official web portal to all federal, state and local government web resources and services.